Flag for United Kingdom Weather past 2 weeks in Cheltenham, England, United Kingdom

Now
79 °F

Sunny.


Feels Like: 79 °F
Forecast: 56 / 78 °F
Wind: 12 mph from Northeast

Location: Staverton Private

Current Time: Jul 24, 2014 at 9:14:30 PM

Latest Report: Jul 24, 2014 at 7:20 PM


Visibility: 10 mi

Pressure: 30.01 "Hg

Humidity: 45%

Dew point: 55 °F

Location of CheltenhamLocation

Historic Weather in Cheltenham — Graph

°F

Cheltenham temperature yesterday

Maximum temperature yesterday: 82 °F (at 4:50 PM)
Minimum temperature yesterday: 79 °F (at 2:20 PM)
Average temperature yesterday: 80 °F

Past Weeks' High & Low Weather Summary

 TemperatureHumidityPressure
High82 °F (Jul 23, 4:50 PM)94% (Jul 19, 9:20 AM)30.24 "Hg (Jul 19, 9:20 AM)
Low54 °F (Jul 10, 6:50 AM)35% (Jul 24, 3:50 PM)29.71 "Hg (Jul 19, 3:50 PM)
Average71 °F58%30.00 "Hg
* Reported Jul 10 6:50 AM — Jul 24 7:20 PM, Cheltenham, Weather by CustomWeather, © 2014

Note: Actual official high and low records may vary slightly from our data, if they occured in-between our weather recording intervals... More about our weather records

Advertising

Cheltenham weather history for previous 24 hours

 ConditionsComfort  
Time TempWeatherWind HumidityBarometerVisibility
7:20 PM
Jul 24
79 °FSunny.12 mph45%30.01 "Hg10 mi
6:50 PM81 °FSunny.8 mph42%30.01 "Hg10 mi
6:20 PM82 °FSunny.8 mph37%30.01 "Hg10 mi
5:50 PM82 °FPassing clouds.6 mph35%30.01 "HgN/A
5:20 PM82 °FPassing clouds.5 mph35%30.01 "HgN/A
4:50 PM82 °FPassing clouds.5 mph37%30.04 "HgN/A
4:20 PM82 °FSunny.12 mph37%30.04 "Hg10 mi
3:50 PM82 °FPassing clouds.6 mph35%30.04 "HgN/A
3:20 PM81 °FPassing clouds.7 mph39%30.04 "HgN/A
2:50 PM81 °FPassing clouds.9 mph42%30.04 "HgN/A
2:20 PM79 °FPassing clouds.9 mph45%30.04 "HgN/A
1:50 PM79 °FPassing clouds.8 mph51%30.07 "HgN/A
1:20 PM77 °FPassing clouds.8 mph54%30.07 "HgN/A
12:50 PM75 °FPassing clouds.7 mph57%30.07 "HgN/A
12:20 PM73 °FPassing clouds.9 mph61%30.07 "HgN/A
11:50 AM72 °FPassing clouds.8 mph65%30.09 "HgN/A
11:20 AM70 °FPassing clouds.9 mph69%30.09 "HgN/A
10:50 AM66 °FScattered clouds.9 mph73%30.09 "HgN/A
10:20 AM66 °FScattered clouds.10 mph73%30.09 "Hg6 mi
9:50 AM64 °FScattered clouds.9 mph78%30.09 "Hg5 mi
9:20 AM64 °FScattered clouds.8 mph78%30.09 "Hg5 mi
8:50 AM63 °FScattered clouds.8 mph77%30.09 "Hg5 mi
8:20 AM63 °FScattered clouds.13 mph77%30.09 "Hg5 mi
7:50 AM61 °FScattered clouds.9 mph83%30.09 "Hg5 mi
7:20 AM61 °FScattered clouds.9 mph83%30.09 "Hg4 mi
6:50 AM59 °FScattered clouds.6 mph88%30.09 "Hg4 mi
Weather by CustomWeather, © 2014

See weather overviewHow to use our weather pages